AirNav   Air Wisconsin Up To $57,000 Bonus
 
 1566 users online  

6MN9 Benson Airport
White Bear Township, Minnesota, USA

GOING TO WHITE BEAR TOWNSHIP?


FAA INFORMATION EFFECTIVE 25 MARCH 2021

Location

FAA Identifier: 6MN9
Lat/Long: 45-06-59.8800N 092-59-45.7820W
45-06.998000N 092-59.763033W
45.1166333,-92.9960506
(estimated)
Elevation: 942 ft. / 287 m (estimated)
Variation: 03E (1985)
From city: 3 miles N of WHITE BEAR TOWNSHIP, MN
Time zone: UTC -5 (UTC -6 during Standard Time)
Zip code: 55110

Airport Operations

Airport use: Private use. Permission required prior to landing
Activation date: 08/1945
Control tower: no
ARTCC: MINNEAPOLIS CENTER
FSS: PRINCETON FLIGHT SERVICE STATION
Attendance: 0900-DUSK
NO GLIDER ACTIVITY
Wind indicator: yes
Segmented circle: no
Lights: FOR LIRL RWY 12/30 CALL 651-429-0315.
Beacon: white-green (lighted land airport)
FOR ROTG BCN CALL 651-429-0315.

Airport Communications

UNICOM: 122.7
WX AWOS-3 at ANE (9 nm W): 120.625 (763-780-9025)
WX AWOS-3 at 21D (9 nm SE): 120.075 (651-779-5949)
WX ASOS at STP (11 nm S): 118.35 (651-312-8888)
WX ASOS at MIC (16 nm W): 125.7 (763-531-2343)
WX AWOS-3 at SGS (16 nm S): 119.425 (651-457-8120)
WX ASOS at MSP (17 nm SW): 135.35 (612-713-4174)
WX AWOS-3 at OEO (17 nm NE): 119.925 (715-294-3845)
WX AWOS-3 at RNH (19 nm E): 120.0 (715-246-3202)

Nearby radio navigation aids

VOR radial/distance  VOR name  Freq  Var
GEPr090/16.1GOPHER VORTAC117.3006E
MSPr036/16.7MINNEAPOLIS VOR/DME115.3002E
FCMr046/25.8FLYING CLOUD VOR/DME117.7001E
FGTr009/30.2FARMINGTON VORTAC115.7006E

 
NDB name  Hdg/Dist  Freq  Var  ID
RUSH CITY181/34.828202EROS .-. --- ...
PRINCETON133/37.336803EPNM .--. -. --

Airport Services

Fuel available: 100LL
Parking: hangars
Airframe service: MAJOR
Bottled oxygen: NONE
Bulk oxygen: NONE

Runway Information

Runway 12/30

Dimensions: 2000 x 75 ft. / 610 x 23 m
Surface: turf
RUNWAY 12  RUNWAY 30
Traffic pattern: leftleft
Obstructions: tree, 600 ft. from runway, 16:1 slope to cleartrees, 70 ft. from runway, 1:1 slope to clear

Airport Ownership and Management from official FAA records

Ownership: Privately-owned
Owner: WHITE BEAR TOWNSHIP
1281 HAMMOND RD
WHITE BEAR TOWNSHIP, MN 55110
Phone 651-747-2750
Manager: PATRICK CHRISTOPHERSON
1281 HAMMOND RD
WHITE BEAR TOWNSHIP, MN 55110
Phone 651-295-1572

Airport Operational Statistics

Aircraft based on the field: 25
Single engine airplanes: 25
    
Aircraft operations: avg 88/week
78% local general aviation
22% transient general aviation

Additional Remarks

NO NIGHT OPERATIONS.
FOR CD CTC MINNEAPOLIS ARTCC AT 651-463-5588.

Instrument Procedures

There are no published instrument procedures at 6MN9.

Some nearby airports with instrument procedures:

KANE - Anoka County-Blaine Airport (Janes Field) (9 nm W)
21D - Lake Elmo Airport (9 nm SE)
KSTP - St Paul Downtown Airport Holman Field (11 nm S)
KMIC - Crystal Airport (16 nm W)
KSGS - South St Paul Municipal Airport-Richard E Fleming Field (16 nm S)
KMSP - Minneapolis-St Paul International/Wold-Chamberlain Airport (17 nm SW)
KOEO - L O Simenstad Municipal Airport (17 nm NE)
KRNH - New Richmond Regional Airport (19 nm E)
 
Loc | Ops | Rwys | IFR | FBO | Links
Com | Nav | Svcs | Stats | Notes
Area around 6MN9 (Benson Airport)
 
Road maps at: MapQuest Bing Google
 
Aerial photo
WARNING: Photo may not be current or correct
Aerial photo of 6MN9 (Benson Airport)
Do you have a better or more recent aerial photo of Benson Airport that you would like to share? If so, please send us your photo.

 
Sectional chart

 
Airport distance calculator
Flying to Benson Airport? Find the distance to fly.

From to 6MN9

Sunrise and sunset
Times for 13-Apr-2021
 Local
(UTC-5)
 Zulu
(UTC)
Morning civil twilight06:0111:01
Sunrise06:3211:32
Sunset19:5400:54
Evening civil twilight20:2401:24

Current date and time
Zulu (UTC)  13-Apr-2021 14:51:45
Local (UTC-5)  13-Apr-2021 09:51:45
 
METAR
K21D 
9nm SE 
131406Z AUTO 27015G22KT 10SM SCT028 BKN035 01/M03 A2997 RMK AO2
KANE 
9nm W 
131416Z 26009G15KT 7SM -SHSN BKN017 BKN023 OVC030 01/M02 A2995
KSTP 
11nm S 
131353Z 27016G23KT 10SM BKN034 OVC043 02/M04 A2997 RMK AO2 SLP153 T00221039
KMIC 
15nm W 
131410Z 27013G19KT 10SM FEW020 BKN034 OVC050 01/M03 A2995 RMK AO2 PK WND 27027/1354 T00061033
KOEO 
17nm NE 
131435Z AUTO 26008G17KT 10SM BKN029 OVC034 02/M03 A2997 RMK AO2 T00151028
KMSP 
17nm SW 
131353Z 28013G29KT 10SM FEW026 BKN030 OVC036 01/M04 A2997 RMK AO2 PK WND 27029/1348 SLP154 T00111044
KSGS 
17nm S 
131435Z AUTO 25012KT 7SM SCT019 OVC030 01/M03 A2997 RMK AO2 T00071026
KRNH 
20nm E 
131435Z AUTO 25013G17KT 10SM SCT022 BKN029 BKN036 01/M03 A2994 RMK AO2 T00091033
TAF
KMSP 
17nm SW 
131122Z 1312/1418 27015G27KT P6SM SCT025 OVC035 TEMPO 1312/1315 6SM -SHSN BKN022 OVC030 FM131500 28015G28KT 6SM -SHRASN BR OVC025 TEMPO 1319/1323 2SM -SHSN BR OVC018 FM132300 28011KT P6SM -SHSN OVC020 FM140300 26008KT P6SM OVC015
KRNH 
20nm E 
131122Z 1312/1412 27010G17KT P6SM -SN SCT015 BKN028 OVC035 FM131400 25011G17KT P6SM -SN OVC015 FM131800 27014G21KT P6SM -SHRASN OVC016 TEMPO 1320/1321 4SM -SHSN BR OVC009 FM132200 27012G18KT 6SM -SHRA BR OVC020 FM141000 30005KT 4SM -SHSN BR BKN006
NOTAMs
Click for the latest NOTAMs
NOTAMs are issued by the DoD/FAA and will open in a separate window not controlled by AirNav.

 

 
 

Would you like to see your business listed on this page?

 If your business provides an interesting product or service to pilots, flight crews, aircraft, or users of the Benson Airport, you should consider listing it here.  To start the listing process, click on the button below
 
Add a business
 

Other Pages about Benson Airport

Update a link
 
Copyright © AirNav, LLC. All rights reserved. Privacy Policy  Contact